map of DBV home
DBV - Airport
Location
City:  Dubrovnik, Croatia
ICAO:LDDU
IATA:DBV

Details
Type:Airport (Aerodrome, Airfield)
Use:Public/Civil, International (customs port of entry)
Latitude:4233'41"N (42.561353)
Longitude:1816'06"E (18.268244)
Datum:WGS 1984
Elevation:527 ft (161 m)
Variation:4.12E (WMM2015 magnetic declination)
0.11 annual change
Runways:1
Longest:10827 × 148 ft (3300 × 45 m), paved

Time
Time Zone:UTC+1 (DST+2)
Local Time:

Weather
METAR:LDDU 230030Z 10010KT 9999 SCT060 11/04 Q1007
TAF:LDDU 222325Z 2300/2400 10010KT 9999 BKN045 TX13/2313Z TN09/2302Z
BECMG 2317/2319 02018G30KT

Related Locations
Nearby:
Farthest:CHT: 11693 mi / 18818 km
Waitangi [Tuuta], CIT, NZ

Find:

   beyond  
but within

Other Information
Maps:
NOTAMs:
Links:
Sources:

  
flag of Croatia   

Sectional Chart

Flight Planning
at skyvector.com

Satellite Image

Google Maps Satellite view

 

Copyright © 2004-2018 Karl L. Swartz. All rights reserved.
The Great Circle Mapper name and logo are trademarks of the Great Circle Mapper.
All other trademarks mentioned herein belong to their respective owners.
Please see credits for attibutions and further copyright information.

  Follow gcmap on Facebook Follow gcmap on Twitter Follow gcmap on Google+ GCmap on LinkedIn

hCard Microformat

Geo Microformat